Starlink 11722

operational
NORAD ID: 64128 Int'l Des: 2025-111 Owner: SPXS Country: US Constellation: starlink
LEOCIRCULAR

About Starlink 11722

Description loading...

Live Position

Loading 3D Globe...

Upcoming Passes

Altitude History

Altitude vs Time

uPlot chart will show altitude changes over time

Two-Line Element Set

1 64128U 25111F 25353.98151353 .00218227 00000-0 16534-2 0 9997
2 64128 43.0000 94.2552 0001144 300.5093 59.5662 15.70934320 34056
Epoch: Dec 19, 2025 • Age: 14 hours

Current Status

Altitude 358.9 km
Velocity 7.70 km/s
Sub-Earth Point 41.14°N, 93.44°W
Launch Date May 24, 2025
Age 0.5 years
Type internet

Technical Details

Classification Payload
Mass 960.00 kg
Dry Mass 910.00 kg
Total Mass 960.00 kg
Length 0.30 m
Diameter 4.10 m
Span 29.00 m
Shape Box + pan
Manufacturer SPXS
Bus Type Starlink V2MD
Phase Status In Orbit
Owner/State SPXS/US

Large Constellations

Loading constellations...